Weather History for GMAD - November, 2012

Change the Weather History Date:

Friday, November 30, 2012

  Actual Average Record
Temperature  
Mean Temperature 56 °F -  
Max Temperature 69 °F - - ()
Min Temperature 42 °F - - ()
Degree Days  
Heating Degree Days 10    
Growing Degree Days 6 (Base 50)    
Moisture  
Dew Point 45 °F    
Average Humidity 68    
Maximum Humidity 93    
Minimum Humidity 28    
Precipitation  
Precipitation 0.00 in - - ()
Sea Level Pressure  
Sea Level Pressure 29.93 in    
Wind  
Wind Speed 6 mph ()    
Max Wind Speed 25 mph    
Max Gust Speed -    
Visibility 6.1 miles    
Events      
T = Trace of Precipitation, MM = Missing Value Source: Averaged Metar Reports

Daily Weather History Graph

Daily Weather History Graph

Search for Another Location

Airport or City:

Trip Planner

Search our weather history database for the weather conditions in past years. The results will help you decide how hot, cold, wet, or windy it might be!

Date:

Astronomy

Nov. 30, 2012 Rise Set
Actual Time 7:15 AM WET 5:36 PM WET
Civil Twilight 6:49 AM WET 6:02 PM WET
Nautical Twilight 6:20 AM WET 6:32 PM WET
Astronomical Twilight 5:51 AM WET 7:01 PM WET
Moon 7:19 PM WET (11/30) 8:38 AM WET (11/30)
Length of Visible Light 11h 12m
Length of Day
10h 20m
Full, 97% of the Moon is Illuminated
Nov 30
Full
Dec 6
Last Quarter
Dec 13
New
Dec 20
First Quarter
Dec 28
Full

Hourly Weather History & Observations

Time (WET) Temp. Windchill Dew Point Humidity Pressure Visibility Wind Dir Wind Speed Gust Speed Precip Events Conditions
12:00 AM 52 °F - 48 °F 80% 29.96 in 6 mi Calm Calm - -  
12:00 AM 51.8 °F - 48.2 °F 88% 29.95 in - Calm Calm - N/A   Clear
3:00 AM 46 °F - 44 °F 88% 29.96 in 6 mi ENE 4.6 mph - -  
3:00 AM 46.4 °F 44.3 °F 42.8 °F 87% 29.95 in - ENE 4.6 mph - N/A   Clear
4:00 AM 48.2 °F - 44.6 °F 87% 29.92 in - SE 6.9 mph - N/A   Unknown
5:00 AM 46.4 °F 44.3 °F 42.8 °F 87% 29.92 in - ESE 4.6 mph - N/A   Clear
6:00 AM 42 °F - 40 °F 89% 29.96 in 6 mi ENE 4.6 mph - -  
6:00 AM 44.6 °F 43.1 °F 41.0 °F 87% 29.95 in - NE 3.5 mph - N/A   Clear
7:00 AM 42.8 °F 40.1 °F 41.0 °F 93% 29.95 in - East 4.6 mph - N/A   Clear
8:00 AM 44.6 °F 43.1 °F 42.8 °F 93% 29.98 in - ESE 3.5 mph - N/A   Clear
9:00 AM 48 °F - 45 °F 85% 30.00 in 6 mi ENE 3.5 mph - -  
9:00 AM 48.2 °F - 44.6 °F 87% 29.98 in - ENE 3.5 mph - N/A   Clear
10:00 AM 57.2 °F - 50.0 °F 77% 29.98 in - Variable 2.3 mph - N/A   Clear
11:00 AM 62.6 °F - 48.2 °F 59% 29.98 in - SSW 3.5 mph - N/A   Clear
12:00 PM 65 °F - 46 °F 39% 29.96 in 6 mi SW 8.1 mph - -  
12:00 PM 64.4 °F - 46.4 °F 52% 29.95 in - North - - N/A   Clear
1:00 PM 66.2 °F - 42.8 °F 43% 29.92 in - SW 9.2 mph - N/A   Clear
2:00 PM 68.0 °F - 44.6 °F 43% 29.89 in 6.2 mi WSW 9.2 mph - N/A   Scattered Clouds
3:00 PM 69 °F - 44 °F 28% 29.88 in 6 mi West 25.3 mph - -   Partly Cloudy
3:00 PM 68.0 °F - 42.8 °F 40% 29.89 in 6.2 mi West 25.3 mph - N/A   Scattered Clouds
4:00 PM 66.2 °F - 48.2 °F 52% 29.89 in 6.2 mi West 20.7 mph - N/A   Scattered Clouds
5:00 PM 62.6 °F - 48.2 °F 59% 29.89 in 6.2 mi WNW 23.0 mph - N/A   Scattered Clouds
6:00 PM 58 °F - 50 °F 66% 29.91 in 6 mi West 15.0 mph - -   Partly Cloudy
6:00 PM 59.0 °F - 50.0 °F 72% 29.89 in 6.2 mi West 15.0 mph - N/A   Scattered Clouds
7:00 PM 59.0 °F - 50.0 °F 72% 29.92 in 6.2 mi West 12.7 mph - N/A   Scattered Clouds
8:00 PM 59.0 °F - 48.2 °F 67% 29.92 in 6.2 mi West 13.8 mph - N/A   Scattered Clouds
9:00 PM 59 °F - 47 °F 53% 29.93 in 6 mi West 12.7 mph - -   Partly Cloudy
9:00 PM 59.0 °F - 46.4 °F 63% 29.92 in 6.2 mi West 12.7 mph - N/A   Scattered Clouds
10:00 PM 57.2 °F - 42.8 °F 59% 29.92 in 6.2 mi WSW 4.6 mph - N/A   Scattered Clouds
11:00 PM 57.2 °F - 42.8 °F 59% 29.92 in 6.2 mi WSW 8.1 mph - N/A   Scattered Clouds